Home   Weather   Sinsheim   Past weeks

Flag for Germany Past Weather in Sinsheim, Baden-Württemberg, Germany — Yesterday and Last 2 Weeks

Now
64 °F

Scattered showers. Partly sunny.


Feels Like: 64 °F
Forecast: 51 / 61 °F
Wind: 10 mph from Southwest

Location: Mannheim City

Current Time: Oct 1, 2016 at 5:40:26 PM

Latest Report: Oct 1, 2016 at 4:50 PM


Visibility: N/A

Pressure: 29.80 "Hg

Humidity: 94%

Dew Point: 63 °F

Location of SinsheimLocation

Past Weather in Sinsheim — Graph

°F

Sinsheim Temperature Yesterday

Maximum temperature yesterday: 70 °F (at 1:50 PM)
Minimum temperature yesterday: 61 °F (at 4:50 PM)
Average temperature yesterday: 64 °F

High & Low Weather Summary for the Past Weeks

 TemperatureHumidityPressure
High79 °F (Sep 29, 4:50 PM)100% (Sep 17, 7:50 AM)30.39 "Hg (Sep 17, 7:50 AM)
Low45 °F (Sep 22, 5:50 AM)32% (Sep 29, 5:50 PM)29.80 "Hg (Oct 1, 3:50 PM)
Average64 °F71%30.12 "Hg
* Reported Sep 16 4:20 PM — Oct 1 4:20 PM, Sinsheim, Weather by CustomWeather, © 2016

Note: Actual official high and low records may vary slightly from our data, if they occured in-between our weather recording intervals... More about our weather records

Advertising

Sinsheim Weather History for the Previous 24 Hours

Scroll right to see more
 ConditionsComfort  
Time TempWeatherWind HumidityBarometerVisibility
4:20 PM
Sat, Oct 1
64 °FLight rain. Partly sunny.8 mph94%29.80 "HgN/A
3:50 PM66 °FBroken clouds.8 mph83%29.80 "HgN/A
3:20 PM66 °FBroken clouds.9 mph88%29.83 "HgN/A
2:50 PM64 °FBroken clouds.8 mph94%29.83 "HgN/A
2:20 PM64 °FPartly sunny.10 mph88%29.83 "HgN/A
1:50 PM63 °FPartly sunny.9 mph100%29.83 "HgN/A
1:20 PM63 °FLight rain. Broken clouds.9 mph100%29.83 "HgN/A
12:50 PM63 °FLight rain. Broken clouds.7 mph100%29.83 "HgN/A
12:20 PM63 °FMostly cloudy.8 mph100%29.83 "HgN/A
11:50 AM63 °FPartly sunny.8 mph100%29.83 "HgN/A
11:20 AM63 °FBroken clouds.8 mph100%29.83 "HgN/A
10:50 AM61 °FPartly sunny.7 mph100%29.83 "HgN/A
10:20 AM61 °FPartly sunny.6 mph100%29.83 "HgN/A
9:50 AM59 °FMostly cloudy.5 mph100%29.83 "Hg6 mi
9:20 AM59 °FLight rain. Broken clouds.5 mph100%29.83 "HgN/A
8:50 AM59 °FPartly sunny.6 mph100%29.83 "Hg6 mi
8:20 AM59 °FMore clouds than sun.3 mph100%29.83 "Hg4 mi
7:50 AM59 °FLight rain. More clouds than sun.5 mph100%29.83 "Hg4 mi
7:20 AM59 °FLight rain. Overcast.3 mph100%29.83 "Hg6 mi
6:50 AM59 °FLight rain. Overcast.6 mph100%29.83 "Hg5 mi
9:20 PM
Fri, Sep 30
61 °FMostly cloudy.2 mph83%29.98 "HgN/A
8:50 PM61 °FPassing clouds.2 mph83%29.98 "HgN/A
8:20 PM61 °FPassing clouds.2 mph83%29.98 "HgN/A
7:50 PM63 °FPartly cloudy.1 mph77%29.98 "HgN/A
7:20 PM63 °FPartly cloudy.2 mph77%29.98 "HgN/A
6:50 PM63 °FBroken clouds.2 mph73%29.98 "HgN/A
6:20 PM63 °FPartly sunny.3 mph73%29.98 "HgN/A
5:50 PM63 °FBroken clouds.5 mph77%29.98 "HgN/A
5:20 PM63 °FPartly sunny.5 mph77%30.01 "HgN/A
Weather by CustomWeather, © 2016

See weather overviewHow to use our weather pages